Time,TemperatureF,DewpointF,PressureIn,WindDirection,WindDirectionDegrees,WindSpeedMPH,WindSpeedGustMPH,Humidity,HourlyPrecipIn,Conditions,Clouds,dailyrainin,SoftwareType,DateUTC
2013-06-09 00:01:00,56.5,53.9,30.09,WNW,290,0.0,0.0,91,0.00,,---,0.00,VWS V14.01,2013-06-09 04:01:00,
2013-06-09 00:06:00,56.3,53.7,30.09,WNW,290,0.0,0.0,91,0.00,,---,0.00,VWS V14.01,2013-06-09 04:06:00,
2013-06-09 00:11:00,56.2,53.6,30.09,WNW,290,0.0,0.0,91,0.00,,---,0.00,VWS V14.01,2013-06-09 04:11:00,
2013-06-09 00:16:00,56.0,53.4,30.09,WNW,290,0.0,0.0,91,0.00,,---,0.00,VWS V14.01,2013-06-09 04:16:00,
2013-06-09 00:21:00,55.9,53.3,30.09,WNW,290,0.0,0.0,91,0.00,,---,0.00,VWS V14.01,2013-06-09 04:21:00,
2013-06-09 00:27:00,55.8,53.2,30.10,WNW,290,0.0,0.0,91,0.00,,---,0.00,VWS V14.01,2013-06-09 04:27:00,
2013-06-09 00:32:00,55.7,53.1,30.10,WNW,290,0.0,0.0,91,0.00,,---,0.00,VWS V14.01,2013-06-09 04:32:00,
2013-06-09 00:37:00,55.6,53.0,30.10,WNW,290,0.0,0.0,91,0.00,,---,0.00,VWS V14.01,2013-06-09 04:37:00,
2013-06-09 00:42:00,55.4,52.8,30.10,WNW,290,0.0,0.0,91,0.00,,---,0.00,VWS V14.01,2013-06-09 04:42:00,
2013-06-09 00:47:00,55.3,52.7,30.10,WNW,290,0.0,0.0,91,0.00,,---,0.00,VWS V14.01,2013-06-09 04:47:00,
2013-06-09 00:52:00,55.2,52.6,30.10,WNW,290,0.0,0.0,91,0.00,,---,0.00,VWS V14.01,2013-06-09 04:52:00,
2013-06-09 00:57:00,55.1,52.5,30.10,WNW,290,0.0,0.0,91,0.00,,---,0.00,VWS V14.01,2013-06-09 04:57:00,
2013-06-09 01:02:00,55.0,52.4,30.10,WNW,290,0.0,0.0,91,0.00,,---,0.00,VWS V14.01,2013-06-09 05:02:00,
2013-06-09 01:07:00,54.9,52.3,30.10,WNW,290,0.0,0.0,91,0.00,,---,0.00,VWS V14.01,2013-06-09 05:07:00,
2013-06-09 01:12:00,54.8,52.2,30.10,WNW,290,0.0,0.0,91,0.00,,---,0.00,VWS V14.01,2013-06-09 05:12:00,
2013-06-09 01:17:00,54.7,52.1,30.10,WNW,290,0.0,0.0,91,0.00,,---,0.00,VWS V14.01,2013-06-09 05:17:00,
2013-06-09 01:22:00,54.5,51.9,30.10,WNW,290,0.0,0.0,91,0.00,,---,0.00,VWS V14.01,2013-06-09 05:22:00,
2013-06-09 01:27:00,54.5,51.9,30.10,WNW,290,0.0,0.0,91,0.00,,---,0.00,VWS V14.01,2013-06-09 05:27:00,
2013-06-09 01:32:00,54.4,51.8,30.10,WNW,290,0.0,0.0,91,0.00,,---,0.00,VWS V14.01,2013-06-09 05:32:00,
2013-06-09 01:37:00,54.3,51.7,30.10,WNW,290,0.0,0.0,91,0.00,,---,0.00,VWS V14.01,2013-06-09 05:37:00,
2013-06-09 01:42:00,54.2,51.6,30.10,WNW,290,0.0,0.0,91,0.00,,---,0.00,VWS V14.01,2013-06-09 05:42:00,
2013-06-09 01:47:00,54.1,51.8,30.10,WNW,290,0.0,0.0,92,0.00,,---,0.00,VWS V14.01,2013-06-09 05:47:00,
2013-06-09 01:52:00,54.0,51.4,30.10,WNW,290,0.0,0.0,91,0.00,,---,0.00,VWS V14.01,2013-06-09 05:52:00,
2013-06-09 01:57:00,53.9,51.3,30.10,WNW,290,0.0,0.0,91,0.00,,---,0.00,VWS V14.01,2013-06-09 05:57:00,
2013-06-09 02:02:00,53.8,51.5,30.09,WNW,290,0.0,0.0,92,0.00,,---,0.00,VWS V14.01,2013-06-09 06:02:00,
2013-06-09 02:07:00,53.7,51.4,30.09,WNW,290,0.0,0.0,92,0.00,,---,0.00,VWS V14.01,2013-06-09 06:07:00,
2013-06-09 02:12:00,53.7,51.4,30.09,WNW,290,0.0,0.0,92,0.00,,---,0.00,VWS V14.01,2013-06-09 06:12:00,
2013-06-09 02:17:00,53.6,51.3,30.10,WNW,290,0.0,0.0,92,0.00,,---,0.00,VWS V14.01,2013-06-09 06:17:00,
2013-06-09 02:22:00,53.5,51.2,30.10,WNW,290,0.0,0.0,92,0.00,,---,0.00,VWS V14.01,2013-06-09 06:22:00,
2013-06-09 02:27:00,53.4,51.1,30.10,WNW,290,0.0,0.0,92,0.00,,---,0.00,VWS V14.01,2013-06-09 06:27:00,
2013-06-09 02:32:00,53.3,51.0,30.10,WNW,290,0.0,0.0,92,0.00,,---,0.00,VWS V14.01,2013-06-09 06:32:00,
2013-06-09 02:37:00,53.2,50.9,30.10,WNW,290,0.0,0.0,92,0.00,,---,0.00,VWS V14.01,2013-06-09 06:37:00,
2013-06-09 02:42:00,53.1,50.8,30.09,WNW,290,0.0,0.0,92,0.00,,---,0.00,VWS V14.01,2013-06-09 06:42:00,
2013-06-09 02:47:00,53.1,50.8,30.10,WNW,290,0.0,0.0,92,0.00,,---,0.00,VWS V14.01,2013-06-09 06:47:00,
2013-06-09 02:52:00,53.1,50.8,30.10,WNW,290,0.0,0.0,92,0.00,,---,0.00,VWS V14.01,2013-06-09 06:52:00,
2013-06-09 02:57:00,53.2,51.2,30.10,WNW,290,0.0,0.0,93,0.00,,---,0.00,VWS V14.01,2013-06-09 06:57:00,
2013-06-09 03:02:00,53.2,51.2,30.10,WNW,290,0.0,0.0,93,0.00,,---,0.00,VWS V14.01,2013-06-09 07:02:00,
2013-06-09 03:07:00,53.3,51.3,30.09,WNW,290,0.0,0.0,93,0.00,,---,0.00,VWS V14.01,2013-06-09 07:07:00,
2013-06-09 03:12:00,53.4,51.4,30.09,WNW,290,0.0,0.0,93,0.00,,---,0.00,VWS V14.01,2013-06-09 07:12:00,
2013-06-09 03:17:00,53.6,51.6,30.09,WNW,290,0.0,0.0,93,0.00,,---,0.00,VWS V14.01,2013-06-09 07:17:00,
2013-06-09 03:22:00,53.7,51.7,30.09,WNW,290,0.0,0.0,93,0.00,,---,0.00,VWS V14.01,2013-06-09 07:22:00,
2013-06-09 03:27:00,54.0,52.0,30.10,WNW,290,0.0,0.0,93,0.00,,---,0.00,VWS V14.01,2013-06-09 07:27:00,
2013-06-09 03:32:00,54.0,52.3,30.09,WNW,290,0.0,0.0,94,0.00,,---,0.00,VWS V14.01,2013-06-09 07:32:00,
2013-06-09 03:37:00,54.2,52.5,30.09,WNW,290,0.0,0.0,94,0.00,,---,0.00,VWS V14.01,2013-06-09 07:37:00,
2013-06-09 03:42:00,54.4,52.7,30.09,WNW,290,0.0,0.0,94,0.00,,---,0.00,VWS V14.01,2013-06-09 07:42:00,
2013-06-09 03:47:00,54.6,52.9,30.09,WNW,290,0.0,0.0,94,0.00,,---,0.00,VWS V14.01,2013-06-09 07:47:00,
2013-06-09 03:52:00,54.7,53.0,30.09,WNW,290,0.0,0.0,94,0.00,,---,0.00,VWS V14.01,2013-06-09 07:52:00,
2013-06-09 03:57:00,54.7,53.0,30.09,WNW,290,0.0,0.0,94,0.00,,---,0.00,VWS V14.01,2013-06-09 07:57:00,
2013-06-09 04:02:00,54.8,53.1,30.10,WNW,290,0.0,0.0,94,0.00,,---,0.00,VWS V14.01,2013-06-09 08:02:00,
2013-06-09 04:07:00,54.9,53.2,30.10,WNW,290,0.0,0.0,94,0.00,,---,0.00,VWS V14.01,2013-06-09 08:07:00,
2013-06-09 04:12:00,55.0,53.3,30.09,WNW,290,0.0,0.0,94,0.00,,---,0.00,VWS V14.01,2013-06-09 08:12:00,
2013-06-09 04:17:00,55.1,53.4,30.10,WNW,290,0.0,0.0,94,0.00,,---,0.00,VWS V14.01,2013-06-09 08:17:00,
2013-06-09 04:22:00,55.2,53.5,30.10,WNW,290,0.0,0.0,94,0.00,,---,0.00,VWS V14.01,2013-06-09 08:22:00,
2013-06-09 04:27:00,55.3,53.6,30.09,WNW,290,0.0,0.0,94,0.00,,---,0.00,VWS V14.01,2013-06-09 08:27:00,
2013-06-09 04:32:00,55.5,54.1,30.10,WNW,290,0.0,0.0,95,0.00,,---,0.00,VWS V14.01,2013-06-09 08:32:00,
2013-06-09 04:37:00,55.6,54.2,30.10,WNW,290,0.0,0.0,95,0.00,,---,0.00,VWS V14.01,2013-06-09 08:37:00,
2013-06-09 04:42:00,55.7,54.3,30.10,WNW,290,0.0,0.0,95,0.00,,---,0.00,VWS V14.01,2013-06-09 08:42:00,
2013-06-09 04:47:00,55.7,54.3,30.10,WNW,290,0.0,0.0,95,0.00,,---,0.00,VWS V14.01,2013-06-09 08:47:00,
2013-06-09 04:52:00,55.7,54.3,30.10,WNW,290,0.0,0.0,95,0.00,,---,0.00,VWS V14.01,2013-06-09 08:52:00,
2013-06-09 04:57:00,55.8,54.4,30.10,WNW,290,0.0,0.0,95,0.00,,---,0.00,VWS V14.01,2013-06-09 08:57:00,
2013-06-09 05:02:00,55.8,54.4,30.10,WNW,290,0.0,0.0,95,0.00,,---,0.00,VWS V14.01,2013-06-09 09:02:00,
2013-06-09 05:07:00,55.8,54.4,30.10,WNW,290,0.0,0.0,95,0.00,,---,0.00,VWS V14.01,2013-06-09 09:07:00,
2013-06-09 05:12:00,55.8,54.4,30.10,WNW,290,0.0,0.0,95,0.00,,---,0.00,VWS V14.01,2013-06-09 09:12:00,
2013-06-09 05:17:00,55.8,54.4,30.11,WNW,290,0.0,0.0,95,0.00,,---,0.00,VWS V14.01,2013-06-09 09:17:00,
2013-06-09 05:22:00,55.9,54.5,30.11,WNW,290,0.0,0.0,95,0.00,,---,0.00,VWS V14.01,2013-06-09 09:22:00,
2013-06-09 05:27:00,55.9,54.5,30.11,WNW,290,0.0,0.0,95,0.00,,---,0.00,VWS V14.01,2013-06-09 09:27:00,
2013-06-09 05:32:00,55.9,54.5,30.11,WNW,290,0.0,0.0,95,0.00,,---,0.00,VWS V14.01,2013-06-09 09:32:00,
2013-06-09 05:37:00,55.9,54.5,30.11,WNW,290,0.0,0.0,95,0.00,,---,0.00,VWS V14.01,2013-06-09 09:37:00,
2013-06-09 05:42:00,55.9,54.5,30.11,WNW,290,0.0,0.0,95,0.00,,---,0.00,VWS V14.01,2013-06-09 09:42:00,
2013-06-09 05:47:00,55.9,54.5,30.11,WNW,290,0.0,0.0,95,0.00,,---,0.00,VWS V14.01,2013-06-09 09:47:00,
2013-06-09 05:52:00,55.9,54.5,30.11,WNW,290,0.0,0.0,95,0.00,,---,0.00,VWS V14.01,2013-06-09 09:52:00,
2013-06-09 05:57:00,56.0,54.6,30.11,WNW,290,0.0,0.0,95,0.00,,---,0.00,VWS V14.01,2013-06-09 09:57:00,
2013-06-09 06:02:00,56.0,54.6,30.11,WNW,290,0.0,0.0,95,0.00,,---,0.00,VWS V14.01,2013-06-09 10:02:00,
2013-06-09 06:07:00,56.1,54.7,30.12,WNW,290,0.0,0.0,95,0.00,,---,0.00,VWS V14.01,2013-06-09 10:07:00,
2013-06-09 06:12:00,56.0,54.6,30.12,WNW,290,0.0,0.0,95,0.00,,---,0.00,VWS V14.01,2013-06-09 10:12:00,
2013-06-09 06:17:00,56.0,54.6,30.12,WNW,290,0.0,0.0,95,0.00,,---,0.00,VWS V14.01,2013-06-09 10:17:00,
2013-06-09 06:22:00,56.0,54.6,30.12,WNW,290,0.0,0.0,95,0.00,,---,0.00,VWS V14.01,2013-06-09 10:22:00,
2013-06-09 06:27:00,55.9,54.5,30.12,WNW,290,0.0,0.0,95,0.00,,---,0.00,VWS V14.01,2013-06-09 10:27:00,
2013-06-09 06:32:00,55.9,54.5,30.12,WNW,290,0.0,0.0,95,0.00,,---,0.00,VWS V14.01,2013-06-09 10:32:00,
2013-06-09 06:37:00,55.7,54.3,30.12,WNW,290,0.0,0.0,95,0.00,,---,0.00,VWS V14.01,2013-06-09 10:37:00,
2013-06-09 06:42:00,55.7,54.3,30.12,WNW,290,0.0,0.0,95,0.00,,---,0.00,VWS V14.01,2013-06-09 10:42:00,
2013-06-09 06:47:00,55.6,54.2,30.12,WNW,290,0.0,0.0,95,0.00,,---,0.00,VWS V14.01,2013-06-09 10:47:00,
2013-06-09 06:52:00,55.6,54.2,30.12,WNW,290,0.0,0.0,95,0.00,,---,0.00,VWS V14.01,2013-06-09 10:52:00,
2013-06-09 06:57:00,55.5,54.1,30.13,WNW,290,0.0,0.0,95,0.00,,---,0.00,VWS V14.01,2013-06-09 10:57:00,
2013-06-09 07:02:00,55.5,54.1,30.13,WNW,290,0.0,0.0,95,0.00,,---,0.00,VWS V14.01,2013-06-09 11:02:00,
2013-06-09 07:07:00,55.6,54.2,30.13,WNW,290,0.0,0.0,95,0.00,,---,0.00,VWS V14.01,2013-06-09 11:07:00,
2013-06-09 07:12:00,55.6,54.2,30.13,WNW,290,0.0,0.0,95,0.00,,---,0.00,VWS V14.01,2013-06-09 11:12:00,
2013-06-09 07:17:00,55.8,54.7,30.13,WNW,290,0.0,0.0,96,0.00,,---,0.00,VWS V14.01,2013-06-09 11:17:00,
2013-06-09 07:22:00,55.9,54.8,30.13,WNW,290,0.0,0.0,96,0.00,,---,0.00,VWS V14.01,2013-06-09 11:22:00,
2013-06-09 07:27:00,56.1,55.0,30.13,WNW,290,0.0,0.0,96,0.00,,---,0.00,VWS V14.01,2013-06-09 11:27:00,
2013-06-09 07:32:00,56.4,55.3,30.13,WNW,290,0.0,0.0,96,0.00,,---,0.00,VWS V14.01,2013-06-09 11:32:00,
2013-06-09 07:37:00,56.7,55.6,30.13,WNW,290,0.0,0.0,96,0.00,,---,0.00,VWS V14.01,2013-06-09 11:37:00,
2013-06-09 07:42:00,57.1,56.0,30.13,WNW,290,0.0,0.0,96,0.00,,---,0.00,VWS V14.01,2013-06-09 11:42:00,
2013-06-09 07:47:00,57.5,56.7,30.14,WNW,290,0.0,0.0,97,0.00,,---,0.00,VWS V14.01,2013-06-09 11:47:00,
2013-06-09 07:52:00,58.0,57.2,30.14,WNW,290,0.0,1.0,97,0.00,,---,0.00,VWS V14.01,2013-06-09 11:52:00,
2013-06-09 07:57:00,58.7,57.8,30.14,ESE,106,0.0,2.0,97,0.00,,---,0.00,VWS V14.01,2013-06-09 11:57:00,
2013-06-09 08:02:00,59.3,58.5,30.14,East,84,0.0,3.0,97,0.00,,---,0.00,VWS V14.01,2013-06-09 12:02:00,
2013-06-09 08:07:00,60.0,59.2,30.14,East,90,1.0,2.0,97,0.00,,---,0.00,VWS V14.01,2013-06-09 12:07:00,
2013-06-09 08:12:00,60.5,59.7,30.14,East,100,1.0,2.0,97,0.00,,---,0.00,VWS V14.01,2013-06-09 12:12:00,
2013-06-09 08:17:00,61.0,60.2,30.14,East,96,0.0,2.0,97,0.00,,---,0.00,VWS V14.01,2013-06-09 12:17:00,
2013-06-09 08:22:00,61.4,60.5,30.14,East,97,0.0,2.0,97,0.00,,---,0.00,VWS V14.01,2013-06-09 12:22:00,
2013-06-09 08:27:00,61.8,60.9,30.14,East,79,0.0,2.0,97,0.00,,---,0.00,VWS V14.01,2013-06-09 12:27:00,
2013-06-09 08:32:00,62.0,61.1,30.15,ENE,71,1.0,2.0,97,0.00,,---,0.00,VWS V14.01,2013-06-09 12:32:00,
2013-06-09 08:37:00,62.3,61.4,30.15,ENE,64,0.0,3.0,97,0.00,,---,0.00,VWS V14.01,2013-06-09 12:37:00,
2013-06-09 08:42:00,62.6,61.7,30.14,NNE,32,0.0,0.0,97,0.00,,---,0.00,VWS V14.01,2013-06-09 12:42:00,
2013-06-09 08:47:00,63.2,62.3,30.14,WNW,288,0.0,1.0,97,0.00,,---,0.00,VWS V14.01,2013-06-09 12:47:00,
2013-06-09 08:52:00,63.7,62.8,30.15,East,80,0.0,1.0,97,0.00,,---,0.00,VWS V14.01,2013-06-09 12:52:00,
2013-06-09 08:57:00,64.2,63.3,30.15,East,80,0.0,0.0,97,0.00,,---,0.00,VWS V14.01,2013-06-09 12:57:00,
2013-06-09 09:02:00,64.6,63.7,30.15,East,80,0.0,0.0,97,0.00,,---,0.00,VWS V14.01,2013-06-09 13:02:00,
2013-06-09 09:07:00,65.0,64.1,30.15,East,83,0.0,1.0,97,0.00,,---,0.00,VWS V14.01,2013-06-09 13:07:00,
2013-06-09 09:12:00,65.6,64.7,30.15,East,83,0.0,0.0,97,0.00,,---,0.00,VWS V14.01,2013-06-09 13:12:00,
2013-06-09 09:17:00,66.2,65.3,30.15,East,83,0.0,1.0,97,0.00,,---,0.00,VWS V14.01,2013-06-09 13:17:00,
2013-06-09 09:22:00,66.6,65.4,30.15,ESE,107,3.0,3.0,96,0.00,,---,0.00,VWS V14.01,2013-06-09 13:22:00,
2013-06-09 09:27:00,67.0,65.5,30.14,ENE,61,1.0,4.0,95,0.00,,---,0.00,VWS V14.01,2013-06-09 13:27:00,
2013-06-09 09:32:00,67.5,65.7,30.14,ENE,77,0.0,4.0,94,0.00,,---,0.00,VWS V14.01,2013-06-09 13:32:00,
2013-06-09 09:37:00,68.2,66.1,30.14,East,93,0.0,2.0,93,0.00,,---,0.00,VWS V14.01,2013-06-09 13:37:00,
2013-06-09 09:43:00,69.0,66.3,30.14,East,96,1.0,4.0,91,0.00,,---,0.00,VWS V14.01,2013-06-09 13:43:00,
2013-06-09 09:47:00,69.4,66.0,30.14,East,99,0.0,3.0,89,0.00,,---,0.00,VWS V14.01,2013-06-09 13:47:00,
2013-06-09 09:52:00,69.9,65.5,30.14,East,96,0.0,3.0,86,0.00,,---,0.00,VWS V14.01,2013-06-09 13:52:00,
2013-06-09 09:57:00,70.4,65.0,30.13,East,98,1.0,6.0,83,0.00,,---,0.00,VWS V14.01,2013-06-09 13:57:00,
2013-06-09 10:02:00,71.1,65.3,30.13,South,173,0.0,3.0,82,0.00,,---,0.00,VWS V14.01,2013-06-09 14:02:00,
2013-06-09 10:08:00,71.6,65.1,30.13,SW,232,0.0,1.0,80,0.00,,---,0.00,VWS V14.01,2013-06-09 14:08:00,
2013-06-09 10:13:00,71.9,65.0,30.13,SE,131,2.0,3.0,79,0.00,,---,0.00,VWS V14.01,2013-06-09 14:13:00,
2013-06-09 10:18:00,72.3,65.1,30.13,ESE,106,0.0,4.0,78,0.00,,---,0.00,VWS V14.01,2013-06-09 14:18:00,
2013-06-09 10:23:00,72.6,65.3,30.13,SE,138,0.0,3.0,78,0.00,,---,0.00,VWS V14.01,2013-06-09 14:23:00,
2013-06-09 10:28:00,72.8,64.8,30.13,ESE,105,0.0,3.0,76,0.00,,---,0.00,VWS V14.01,2013-06-09 14:28:00,
2013-06-09 10:33:00,73.0,65.0,30.13,WNW,302,1.0,4.0,76,0.00,,---,0.00,VWS V14.01,2013-06-09 14:33:00,
2013-06-09 10:38:00,73.2,65.2,30.13,ESE,110,0.0,3.0,76,0.00,,---,0.00,VWS V14.01,2013-06-09 14:38:00,
2013-06-09 10:43:00,73.8,65.8,30.13,SE,130,0.0,5.0,76,0.00,,---,0.00,VWS V14.01,2013-06-09 14:43:00,
2013-06-09 10:48:00,74.2,65.4,30.13,ESE,113,3.0,5.0,74,0.00,,---,0.00,VWS V14.01,2013-06-09 14:48:00,
2013-06-09 10:53:00,74.7,66.3,30.12,ENE,67,1.0,3.0,75,0.00,,---,0.00,VWS V14.01,2013-06-09 14:53:00,
2013-06-09 10:58:00,75.0,66.2,30.12,SSE,163,0.0,3.0,74,0.00,,---,0.00,VWS V14.01,2013-06-09 14:58:00,
2013-06-09 11:03:00,75.3,65.7,30.12,ENE,74,0.0,3.0,72,0.00,,---,0.00,VWS V14.01,2013-06-09 15:03:00,
2013-06-09 11:08:00,75.6,65.5,30.11,NE,49,0.0,4.0,71,0.00,,---,0.00,VWS V14.01,2013-06-09 15:08:00,
2013-06-09 11:13:00,75.7,65.2,30.11,NNW,336,0.0,6.0,70,0.00,,---,0.00,VWS V14.01,2013-06-09 15:13:00,
2013-06-09 11:18:00,75.7,65.2,30.11,East,98,0.0,2.0,70,0.00,,---,0.00,VWS V14.01,2013-06-09 15:18:00,
2013-06-09 11:23:00,75.7,65.6,30.11,ESE,121,1.0,4.0,71,0.00,,---,0.00,VWS V14.01,2013-06-09 15:23:00,
2013-06-09 11:28:00,76.0,66.3,30.11,NE,56,0.0,4.0,72,0.00,,---,0.00,VWS V14.01,2013-06-09 15:28:00,
2013-06-09 11:33:00,76.6,66.9,30.11,WSW,257,0.0,4.0,72,0.00,,---,0.00,VWS V14.01,2013-06-09 15:33:00,
2013-06-09 11:38:00,77.1,66.2,30.11,WNW,297,0.0,4.0,69,0.00,,---,0.00,VWS V14.01,2013-06-09 15:38:00,
2013-06-09 11:43:00,77.7,66.7,30.11,ENE,65,0.0,4.0,69,0.00,,---,0.00,VWS V14.01,2013-06-09 15:43:00,
2013-06-09 11:48:00,78.2,67.2,30.11,ENE,69,1.0,7.0,69,0.00,,---,0.00,VWS V14.01,2013-06-09 15:48:00,
2013-06-09 11:53:00,78.4,65.2,30.11,West,261,0.0,7.0,64,0.00,,---,0.00,VWS V14.01,2013-06-09 15:53:00,
2013-06-09 11:58:00,78.7,65.1,30.11,ENE,62,4.0,5.0,63,0.00,,---,0.00,VWS V14.01,2013-06-09 15:58:00,
2013-06-09 12:03:00,78.9,66.2,30.11,SSE,147,0.0,4.0,65,0.00,,---,0.00,VWS V14.01,2013-06-09 16:03:00,
2013-06-09 12:08:00,79.2,65.5,30.11,East,84,0.0,5.0,63,0.00,,---,0.00,VWS V14.01,2013-06-09 16:08:00,
2013-06-09 12:13:00,79.6,67.2,30.10,East,91,1.0,3.0,66,0.00,,---,0.00,VWS V14.01,2013-06-09 16:13:00,
2013-06-09 12:18:00,80.1,67.3,30.11,NW,323,0.0,3.0,65,0.00,,---,0.00,VWS V14.01,2013-06-09 16:18:00,
2013-06-09 12:23:00,80.6,67.3,30.10,ESE,115,3.0,3.0,64,0.00,,---,0.00,VWS V14.01,2013-06-09 16:23:00,
2013-06-09 12:28:00,80.9,67.1,30.10,ESE,121,2.0,12.0,63,0.00,,---,0.00,VWS V14.01,2013-06-09 16:28:00,
2013-06-09 12:33:00,81.1,66.9,30.10,East,80,0.0,2.0,62,0.00,,---,0.00,VWS V14.01,2013-06-09 16:33:00,
2013-06-09 12:38:00,81.4,67.1,30.10,ENE,78,0.0,5.0,62,0.00,,---,0.00,VWS V14.01,2013-06-09 16:38:00,
2013-06-09 12:43:00,81.7,66.9,30.10,East,83,3.0,4.0,61,0.00,,---,0.00,VWS V14.01,2013-06-09 16:43:00,
2013-06-09 12:48:00,81.9,65.7,30.09,SE,140,1.0,6.0,58,0.00,,---,0.00,VWS V14.01,2013-06-09 16:48:00,
2013-06-09 12:53:00,82.1,66.4,30.09,East,94,0.0,5.0,59,0.00,,---,0.00,VWS V14.01,2013-06-09 16:53:00,
2013-06-09 12:58:00,82.4,67.1,30.09,WNW,298,0.0,4.0,60,0.00,,---,0.00,VWS V14.01,2013-06-09 16:58:00,
2013-06-09 13:03:00,82.6,66.8,30.08,NE,55,0.0,3.0,59,0.00,,---,0.00,VWS V14.01,2013-06-09 17:03:00,
2013-06-09 13:08:00,82.8,67.0,30.08,NNE,15,0.0,4.0,59,0.00,,---,0.00,VWS V14.01,2013-06-09 17:08:00,
2013-06-09 13:13:00,83.1,66.3,30.08,SE,132,0.0,5.0,57,0.00,,---,0.00,VWS V14.01,2013-06-09 17:13:00,
2013-06-09 13:18:00,83.1,67.3,30.08,NNE,18,4.0,10.0,59,0.00,,---,0.00,VWS V14.01,2013-06-09 17:18:00,
2013-06-09 13:23:00,83.0,66.2,30.07,ENE,76,0.0,4.0,57,0.00,,---,0.00,VWS V14.01,2013-06-09 17:23:00,
2013-06-09 13:28:00,82.9,66.1,30.07,East,88,0.0,3.0,57,0.00,,---,0.00,VWS V14.01,2013-06-09 17:28:00,
2013-06-09 13:33:00,82.9,66.1,30.07,ESE,106,1.0,5.0,57,0.00,,---,0.00,VWS V14.01,2013-06-09 17:33:00,
2013-06-09 13:38:00,83.1,66.8,30.07,NE,50,1.0,5.0,58,0.00,,---,0.00,VWS V14.01,2013-06-09 17:38:00,
2013-06-09 13:43:00,83.5,67.7,30.07,NE,42,2.0,5.0,59,0.00,,---,0.00,VWS V14.01,2013-06-09 17:43:00,
2013-06-09 13:48:00,83.8,67.5,30.07,East,98,2.0,4.0,58,0.00,,---,0.00,VWS V14.01,2013-06-09 17:48:00,
2013-06-09 13:53:00,84.0,67.7,30.06,ESE,122,0.0,2.0,58,0.00,,---,0.00,VWS V14.01,2013-06-09 17:53:00,
2013-06-09 13:58:00,84.2,68.3,30.06,ENE,69,0.0,3.0,59,0.00,,---,0.00,VWS V14.01,2013-06-09 17:58:00,
2013-06-09 14:03:00,84.5,69.1,30.06,East,100,0.0,2.0,60,0.00,,---,0.00,VWS V14.01,2013-06-09 18:03:00,
2013-06-09 14:08:00,84.9,68.5,30.06,East,88,6.0,6.0,58,0.00,,---,0.00,VWS V14.01,2013-06-09 18:08:00,
2013-06-09 14:13:00,84.9,66.9,30.06,ENE,65,1.0,3.0,55,0.00,,---,0.00,VWS V14.01,2013-06-09 18:13:00,
2013-06-09 14:18:00,85.1,67.7,30.06,East,98,0.0,7.0,56,0.00,,---,0.00,VWS V14.01,2013-06-09 18:18:00,
2013-06-09 14:23:00,85.3,68.3,30.06,ENE,63,0.0,3.0,57,0.00,,---,0.00,VWS V14.01,2013-06-09 18:23:00,
2013-06-09 14:28:00,85.8,69.3,30.05,WNW,292,0.0,3.0,58,0.00,,---,0.00,VWS V14.01,2013-06-09 18:28:00,
2013-06-09 14:33:00,86.1,67.5,30.05,SSE,167,0.0,2.0,54,0.00,,---,0.00,VWS V14.01,2013-06-09 18:33:00,
2013-06-09 14:38:00,86.0,65.8,30.05,SSE,161,2.0,3.0,51,0.00,,---,0.00,VWS V14.01,2013-06-09 18:38:00,
2013-06-09 14:43:00,85.8,67.2,30.04,NE,45,2.0,7.0,54,0.00,,---,0.00,VWS V14.01,2013-06-09 18:43:00,
2013-06-09 14:48:00,85.5,67.5,30.04,SE,130,1.0,2.0,55,0.00,,---,0.00,VWS V14.01,2013-06-09 18:48:00,
2013-06-09 14:53:00,85.1,67.7,30.04,East,82,0.0,3.0,56,0.00,,---,0.00,VWS V14.01,2013-06-09 18:53:00,
2013-06-09 14:58:00,85.0,68.1,30.04,SSE,147,1.0,3.0,57,0.00,,---,0.00,VWS V14.01,2013-06-09 18:58:00,
2013-06-09 15:03:00,84.7,68.8,30.04,South,173,0.0,4.0,59,0.00,,---,0.00,VWS V14.01,2013-06-09 19:03:00,
2013-06-09 15:08:00,84.5,67.1,30.04,South,173,0.0,0.0,56,0.00,,---,0.00,VWS V14.01,2013-06-09 19:08:00,
2013-06-09 15:37:00,84.8,66.3,30.02,East,100,0.0,4.0,54,0.00,,---,0.00,VWS V14.01,2013-06-09 19:37:00,
2013-06-09 15:42:00,84.5,67.1,30.02,East,82,0.0,3.0,56,0.00,,---,0.00,VWS V14.01,2013-06-09 19:42:00,
2013-06-09 15:47:00,84.4,66.5,30.01,East,82,0.0,1.0,55,0.00,,---,0.00,VWS V14.01,2013-06-09 19:47:00,
2013-06-09 15:52:00,84.6,67.2,30.01,ENE,61,1.0,4.0,56,0.00,,---,0.00,VWS V14.01,2013-06-09 19:52:00,
2013-06-09 15:57:00,84.8,67.9,30.01,NE,34,0.0,3.0,57,0.00,,---,0.00,VWS V14.01,2013-06-09 19:57:00,
2013-06-09 16:02:00,85.3,68.3,30.01,NW,315,0.0,5.0,57,0.00,,---,0.00,VWS V14.01,2013-06-09 20:02:00,
2013-06-09 16:07:00,85.7,69.2,30.01,SSE,162,1.0,2.0,58,0.00,,---,0.00,VWS V14.01,2013-06-09 20:07:00,
2013-06-09 16:12:00,85.9,67.9,30.00,ENE,73,2.0,3.0,55,0.00,,---,0.00,VWS V14.01,2013-06-09 20:12:00,
2013-06-09 16:17:00,86.0,67.4,30.00,SE,127,0.0,4.0,54,0.00,,---,0.00,VWS V14.01,2013-06-09 20:17:00,
2013-06-09 16:22:00,86.4,69.9,30.00,NE,55,0.0,2.0,58,0.00,,---,0.00,VWS V14.01,2013-06-09 20:22:00,
2013-06-09 16:27:00,86.7,68.1,30.00,ESE,108,2.0,3.0,54,0.00,,---,0.00,VWS V14.01,2013-06-09 20:27:00,
2013-06-09 16:32:00,86.2,66.5,30.00,ENE,77,0.0,4.0,52,0.00,,---,0.00,VWS V14.01,2013-06-09 20:32:00,
2013-06-09 16:37:00,85.9,67.9,30.00,East,101,0.0,1.0,55,0.00,,---,0.00,VWS V14.01,2013-06-09 20:37:00,
2013-06-09 16:42:00,85.6,68.1,30.00,East,82,3.0,5.0,56,0.00,,---,0.00,VWS V14.01,2013-06-09 20:42:00,
2013-06-09 16:47:00,85.3,66.2,30.00,ENE,57,0.0,3.0,53,0.00,,---,0.00,VWS V14.01,2013-06-09 20:47:00,
2013-06-09 16:52:00,85.2,67.8,30.00,East,92,2.0,2.0,56,0.00,,---,0.00,VWS V14.01,2013-06-09 20:52:00,
2013-06-09 16:57:00,85.0,69.1,30.00,East,92,0.0,1.0,59,0.00,,---,0.00,VWS V14.01,2013-06-09 20:57:00,
2013-06-09 17:02:00,85.2,67.8,30.00,East,91,2.0,3.0,56,0.00,,---,0.00,VWS V14.01,2013-06-09 21:02:00,
2013-06-09 17:07:00,85.2,68.3,30.00,ESE,104,0.0,2.0,57,0.00,,---,0.00,VWS V14.01,2013-06-09 21:07:00,
2013-06-09 17:12:00,84.9,67.5,30.00,ENE,69,0.0,4.0,56,0.00,,---,0.00,VWS V14.01,2013-06-09 21:12:00,
2013-06-09 17:17:00,85.0,69.1,30.00,East,86,1.0,2.0,59,0.00,,---,0.00,VWS V14.01,2013-06-09 21:17:00,
2013-06-09 17:22:00,85.0,67.0,30.00,East,89,0.0,1.0,55,0.00,,---,0.00,VWS V14.01,2013-06-09 21:22:00,
2013-06-09 17:27:00,85.0,67.6,30.00,East,89,0.0,2.0,56,0.00,,---,0.00,VWS V14.01,2013-06-09 21:27:00,
2013-06-09 17:32:00,85.1,68.7,30.00,East,86,0.0,2.0,58,0.00,,---,0.00,VWS V14.01,2013-06-09 21:32:00,
2013-06-09 17:37:00,84.8,68.4,30.00,ENE,63,0.0,2.0,58,0.00,,---,0.00,VWS V14.01,2013-06-09 21:37:00,
2013-06-09 17:42:00,84.6,68.2,29.99,NNW,341,1.0,2.0,58,0.00,,---,0.00,VWS V14.01,2013-06-09 21:42:00,
2013-06-09 17:47:00,84.5,69.1,29.99,North,355,0.0,2.0,60,0.00,,---,0.00,VWS V14.01,2013-06-09 21:47:00,
2013-06-09 17:52:00,84.2,69.3,29.99,East,79,0.0,2.0,61,0.00,,---,0.00,VWS V14.01,2013-06-09 21:52:00,
2013-06-09 17:57:00,84.0,68.1,29.99,East,99,2.0,2.0,59,0.00,,---,0.00,VWS V14.01,2013-06-09 21:57:00,
2013-06-09 18:02:00,83.9,68.5,29.99,NE,54,0.0,0.0,60,0.00,,---,0.00,VWS V14.01,2013-06-09 22:02:00,
2013-06-09 18:07:00,83.9,68.5,29.99,ENE,61,0.0,2.0,60,0.00,,---,0.00,VWS V14.01,2013-06-09 22:07:00,
2013-06-09 18:12:00,84.0,67.1,29.99,ESE,119,0.0,2.0,57,0.00,,---,0.00,VWS V14.01,2013-06-09 22:12:00,
2013-06-09 18:17:00,84.0,67.1,29.98,ENE,69,0.0,2.0,57,0.00,,---,0.00,VWS V14.01,2013-06-09 22:17:00,
2013-06-09 18:22:00,84.1,67.7,29.98,East,94,0.0,2.0,58,0.00,,---,0.00,VWS V14.01,2013-06-09 22:22:00,
2013-06-09 18:27:00,84.0,68.6,29.98,ESE,111,0.0,2.0,60,0.00,,---,0.00,VWS V14.01,2013-06-09 22:27:00,
2013-06-09 18:32:00,83.7,67.4,29.98,NE,44,1.0,2.0,58,0.00,,---,0.00,VWS V14.01,2013-06-09 22:32:00,
2013-06-09 18:37:00,83.6,67.8,29.98,East,95,2.0,3.0,59,0.00,,---,0.00,VWS V14.01,2013-06-09 22:37:00,
2013-06-09 18:42:00,83.3,68.0,29.98,East,80,0.0,2.0,60,0.00,,---,0.00,VWS V14.01,2013-06-09 22:42:00,
2013-06-09 18:47:00,82.9,66.6,29.98,ENE,78,0.0,2.0,58,0.00,,---,0.00,VWS V14.01,2013-06-09 22:47:00,
2013-06-09 18:52:00,82.7,68.8,29.98,ENE,78,0.0,1.0,63,0.00,,---,0.00,VWS V14.01,2013-06-09 22:52:00,
2013-06-09 18:57:00,82.3,68.5,29.98,East,88,0.0,2.0,63,0.00,,---,0.00,VWS V14.01,2013-06-09 22:57:00,
2013-06-09 19:02:00,81.9,68.5,29.98,East,88,0.0,0.0,64,0.00,,---,0.00,VWS V14.01,2013-06-09 23:02:00,
2013-06-09 19:07:00,81.6,68.2,29.98,East,88,0.0,0.0,64,0.00,,---,0.00,VWS V14.01,2013-06-09 23:07:00,
2013-06-09 19:12:00,81.3,69.3,29.98,East,88,0.0,0.0,67,0.00,,---,0.00,VWS V14.01,2013-06-09 23:12:00,
2013-06-09 19:17:00,80.9,68.9,29.98,ENE,57,1.0,2.0,67,0.00,,---,0.00,VWS V14.01,2013-06-09 23:17:00,
2013-06-09 19:22:00,80.6,68.2,29.99,ENE,58,0.0,0.0,66,0.00,,---,0.00,VWS V14.01,2013-06-09 23:22:00,
2013-06-09 19:27:00,80.3,68.3,29.99,NNW,346,0.0,3.0,67,0.00,,---,0.00,VWS V14.01,2013-06-09 23:27:00,
2013-06-09 19:32:00,80.0,68.1,29.99,ESE,107,0.0,1.0,67,0.00,,---,0.00,VWS V14.01,2013-06-09 23:32:00,
2013-06-09 19:37:00,79.7,68.2,29.99,ESE,121,0.0,3.0,68,0.00,,---,0.00,VWS V14.01,2013-06-09 23:37:00,
2013-06-09 19:42:00,79.4,68.3,29.99,ESE,121,0.0,0.0,69,0.00,,---,0.00,VWS V14.01,2013-06-09 23:42:00,
2013-06-09 19:47:00,79.1,68.1,29.99,ESE,121,0.0,1.0,69,0.00,,---,0.00,VWS V14.01,2013-06-09 23:47:00,
2013-06-09 19:52:00,78.8,67.8,29.99,ENE,63,0.0,0.0,69,0.00,,---,0.00,VWS V14.01,2013-06-09 23:52:00,
2013-06-09 19:57:00,78.5,67.5,29.99,ENE,63,0.0,0.0,69,0.00,,---,0.00,VWS V14.01,2013-06-09 23:57:00,
2013-06-09 20:02:00,78.3,67.7,29.99,ENE,63,0.0,0.0,70,0.00,,---,0.00,VWS V14.01,2013-06-10 00:02:00,
2013-06-09 20:07:00,78.0,68.2,29.99,ENE,63,0.0,0.0,72,0.00,,---,0.00,VWS V14.01,2013-06-10 00:07:00,
2013-06-09 20:12:00,77.9,68.6,29.99,ENE,63,0.0,0.0,73,0.00,,---,0.00,VWS V14.01,2013-06-10 00:12:00,
2013-06-09 20:17:00,77.5,68.6,29.99,ENE,63,0.0,0.0,74,0.00,,---,0.00,VWS V14.01,2013-06-10 00:17:00,
2013-06-09 20:22:00,77.1,68.2,29.99,ENE,63,0.0,0.0,74,0.00,,---,0.00,VWS V14.01,2013-06-10 00:22:00,
2013-06-09 20:27:00,76.7,68.2,29.99,ENE,63,0.0,0.0,75,0.00,,---,0.00,VWS V14.01,2013-06-10 00:27:00,
2013-06-09 20:32:00,76.4,67.9,29.98,ENE,63,0.0,0.0,75,0.00,,---,0.00,VWS V14.01,2013-06-10 00:32:00,
2013-06-09 20:37:00,76.0,67.9,29.98,ENE,63,0.0,0.0,76,0.00,,---,0.00,VWS V14.01,2013-06-10 00:37:00,
2013-06-09 20:42:00,75.5,67.4,29.98,ENE,63,0.0,0.0,76,0.00,,---,0.00,VWS V14.01,2013-06-10 00:42:00,
2013-06-09 20:47:00,75.2,67.5,29.99,ENE,63,0.0,0.0,77,0.00,,---,0.00,VWS V14.01,2013-06-10 00:47:00,
2013-06-09 20:52:00,74.8,67.1,29.99,ENE,63,0.0,0.0,77,0.00,,---,0.00,VWS V14.01,2013-06-10 00:52:00,
2013-06-09 20:57:00,74.5,67.2,29.99,ENE,63,0.0,0.0,78,0.00,,---,0.00,VWS V14.01,2013-06-10 00:57:00,
2013-06-09 21:02:00,74.1,66.8,29.99,ENE,63,0.0,0.0,78,0.00,,---,0.00,VWS V14.01,2013-06-10 01:02:00,
2013-06-09 21:07:00,73.8,66.9,29.99,ENE,63,0.0,0.0,79,0.00,,---,0.00,VWS V14.01,2013-06-10 01:07:00,
2013-06-09 21:12:00,73.4,66.5,29.99,ENE,63,0.0,0.0,79,0.00,,---,0.00,VWS V14.01,2013-06-10 01:12:00,
2013-06-09 21:17:00,73.1,66.6,29.99,ENE,63,0.0,0.0,80,0.00,,---,0.00,VWS V14.01,2013-06-10 01:17:00,
2013-06-09 21:22:00,72.8,66.3,29.99,ENE,63,0.0,0.0,80,0.00,,---,0.00,VWS V14.01,2013-06-10 01:22:00,
2013-06-09 21:27:00,72.5,66.3,29.99,ENE,63,0.0,0.0,81,0.00,,---,0.00,VWS V14.01,2013-06-10 01:27:00,
2013-06-09 21:32:00,72.2,66.1,29.99,ENE,63,0.0,0.0,81,0.00,,---,0.00,VWS V14.01,2013-06-10 01:32:00,
2013-06-09 21:37:00,71.9,65.8,29.99,ENE,63,0.0,0.0,81,0.00,,---,0.00,VWS V14.01,2013-06-10 01:37:00,
2013-06-09 21:42:00,71.6,65.8,29.99,ENE,63,0.0,0.0,82,0.00,,---,0.00,VWS V14.01,2013-06-10 01:42:00,
2013-06-09 21:47:00,71.4,65.6,29.99,ENE,63,0.0,0.0,82,0.00,,---,0.00,VWS V14.01,2013-06-10 01:47:00,
2013-06-09 21:52:00,71.1,65.7,29.99,ENE,63,0.0,0.0,83,0.00,,---,0.00,VWS V14.01,2013-06-10 01:52:00,
2013-06-09 21:57:00,70.8,65.4,29.99,ENE,63,0.0,0.0,83,0.00,,---,0.00,VWS V14.01,2013-06-10 01:57:00,
2013-06-09 22:02:00,70.6,65.2,29.99,ENE,63,0.0,0.0,83,0.00,,---,0.00,VWS V14.01,2013-06-10 02:02:00,
2013-06-09 22:07:00,70.4,65.3,29.99,ENE,63,0.0,0.0,84,0.00,,---,0.00,VWS V14.01,2013-06-10 02:07:00,
2013-06-09 22:12:00,70.2,65.1,30.00,ENE,63,0.0,0.0,84,0.00,,---,0.00,VWS V14.01,2013-06-10 02:12:00,
2013-06-09 22:17:00,70.0,64.9,30.00,ENE,63,0.0,0.0,84,0.00,,---,0.00,VWS V14.01,2013-06-10 02:17:00,
2013-06-09 22:22:00,69.8,65.1,30.00,ENE,63,0.0,0.0,85,0.00,,---,0.00,VWS V14.01,2013-06-10 02:22:00,
2013-06-09 22:27:00,69.7,65.0,30.00,ENE,63,0.0,0.0,85,0.00,,---,0.00,VWS V14.01,2013-06-10 02:27:00,
2013-06-09 22:32:00,69.5,65.1,30.00,ENE,63,0.0,0.0,86,0.00,,---,0.00,VWS V14.01,2013-06-10 02:32:00,
2013-06-09 22:37:00,69.4,65.0,30.00,ENE,63,0.0,0.0,86,0.00,,---,0.00,VWS V14.01,2013-06-10 02:37:00,
2013-06-09 22:42:00,69.3,64.9,30.00,ENE,63,0.0,0.0,86,0.00,,---,0.00,VWS V14.01,2013-06-10 02:42:00,
2013-06-09 22:47:00,69.2,64.8,30.00,ENE,63,0.0,0.0,86,0.00,,---,0.00,VWS V14.01,2013-06-10 02:47:00,
2013-06-09 22:52:00,69.0,64.6,30.00,ENE,63,0.0,0.0,86,0.00,,---,0.00,VWS V14.01,2013-06-10 02:52:00,
2013-06-09 22:57:00,69.0,65.0,30.00,ENE,63,0.0,0.0,87,0.00,,---,0.00,VWS V14.01,2013-06-10 02:57:00,
2013-06-09 23:02:00,68.9,64.9,30.00,ENE,63,0.0,0.0,87,0.00,,---,0.00,VWS V14.01,2013-06-10 03:02:00,
2013-06-09 23:07:00,68.8,64.8,29.99,ENE,63,0.0,0.0,87,0.00,,---,0.00,VWS V14.01,2013-06-10 03:07:00,
2013-06-09 23:12:00,68.7,65.0,29.99,ENE,63,0.0,0.0,88,0.00,,---,0.00,VWS V14.01,2013-06-10 03:12:00,
2013-06-09 23:17:00,68.6,64.9,29.99,ENE,63,0.0,0.0,88,0.00,,---,0.00,VWS V14.01,2013-06-10 03:17:00,
2013-06-09 23:22:00,68.5,64.8,29.99,ENE,63,0.0,0.0,88,0.00,,---,0.00,VWS V14.01,2013-06-10 03:22:00,
2013-06-09 23:27:00,68.5,64.8,29.99,ENE,63,0.0,0.0,88,0.00,,---,0.00,VWS V14.01,2013-06-10 03:27:00,
2013-06-09 23:32:00,68.4,64.7,29.99,ENE,63,0.0,0.0,88,0.00,,---,0.00,VWS V14.01,2013-06-10 03:32:00,
2013-06-09 23:37:00,68.3,64.6,29.99,ENE,63,0.0,0.0,88,0.00,,---,0.00,VWS V14.01,2013-06-10 03:37:00,
2013-06-09 23:42:00,68.2,64.8,29.99,ENE,63,0.0,0.0,89,0.00,,---,0.00,VWS V14.01,2013-06-10 03:42:00,
2013-06-09 23:47:00,68.2,64.8,29.99,ENE,63,0.0,0.0,89,0.00,,---,0.00,VWS V14.01,2013-06-10 03:47:00,
2013-06-09 23:52:00,68.1,64.7,29.99,ENE,63,0.0,0.0,89,0.00,,---,0.00,VWS V14.01,2013-06-10 03:52:00,
2013-06-09 23:57:00,68.1,64.7,29.99,ENE,63,0.0,0.0,89,0.00,,---,0.00,VWS V14.01,2013-06-10 03:57:00,